Simultaneous Nadir Overpasses (SNOs) Predictions

Prediction of SNOs between GOES-17 and AQUA Satellite Orbit:

Table of predicted SNOs for the next 14.0 days since TLE Epoch: 10/7/2023
Index Date Time (GOES-17) GOES-17 Lat,Lon AQUA Lat,Lon Distance(km) Time Diff (sec)
1 10/07/2023 20:48:49 0.02,-104.69 0.36,-103.21 168.79 80
2 10/08/2023 09:09:25 -0.02,-104.71 0.74,-108.20 396.27 80
3 10/10/2023 08:52:03 -0.02,-104.71 -0.06,-104.61 12.31 80
4 10/12/2023 08:37:19 -0.01,-104.71 -0.81,-101.01 421.29 80
5 10/12/2023 20:58:03 0.01,-104.69 -0.30,-106.03 152.59 80
6 10/14/2023 20:45:58 -0.00,-104.69 0.49,-102.43 257.60 80
7 10/15/2023 09:06:33 0.00,-104.72 0.61,-107.41 306.36 80
8 10/17/2023 08:49:06 0.02,-104.72 -0.15,-103.80 104.28 80
9 10/17/2023 21:09:49 -0.03,-104.69 -0.91,-108.82 469.91 80
10 10/19/2023 20:55:02 -0.03,-104.69 -0.13,-105.21 59.57 80
